User: anonymous   Login
Location: Most
(50.5133°N, 13.6207°E)
Time: 00:20:39
(UTC+02:00)
Language:

ISS - Orbit

View from above orbital plane
View from above orbital plane
View from above satellite
View from above satellite

Ground track
Ground track

The orbit data is extracted from the following two-line orbital elements,

1 25544U 98067A   21294.70960918  .00005772  00000-0  11377-3 0  9991
2 25544  51.6427  77.1199 0004037 128.8434  11.1949 15.48762003308209
Epoch (UTC): 21 October 2021 17:01:50
Eccentricity: 0.0004037
inclination: 51.6427°
perigee height: 417 km
apogee height: 423 km
right ascension of ascending node: 77.1199°
argument of perigee: 128.8434°
revolutions per day: 15.48762003
mean anomaly at epoch: 11.1949°
orbit number at epoch: 30820

The dashed part of the orbit path shows where the satellite is in the earth's shadow,  

DLR